Regional Weather Roundup
Issued by NWS

Home | Current Version | Previous Version | Graphics & Text | Print | Product List | Glossary On
Versions: 1 2 3 4 5 6 7 8 9 10 11 12 13 14 15 16 17 18 19 20 21 22 23 24 25 26 27 28 29 30 31 32 33 34 35 36 37 38 39 40 41 42 43 44 45 46 47 48 49 50
339
ASUS45 KBOU 261910
RWRCO

WEATHER ROUNDUP FOR COLORADO
NATIONAL WEATHER SERVICE DENVER/BOULDER CO
100 PM MDT MON SEP 26 2016

NOTE: "FAIR" INDICATES FEW OR NO CLOUDS BELOW 12000 FEET WITH NO
SIGNIFICANT WEATHER AND/OR OBSTRUCTIONS TO VISIBILITY.

COZ001>005-013-030-031-262000-
...NORTHWEST COLORADO...

CITY           SKY/WX    TMP DP  RH WIND       PRES   REMARKS
CRAIG          FAIR      66  30  26 N5        30.46F
HAYDEN         FAIR      63  28  27 NW5       30.47F
MEEKER         FAIR      65  30  27 CALM      30.45F
MOUNT WERNER   NOT AVBL
STEAMBOAT SPGS FAIR      63  31  30 CALM      30.47F
WALDEN           N/A     61  27  27 N5        30.54F
$$

COZ006>008-011-262000-
...WEST CENTRAL VALLEYS...

CITY           SKY/WX    TMP DP  RH WIND       PRES   REMARKS
GRAND JUNCTION FAIR      68  36  30 CALM      30.39F
MONTROSE       FAIR      65  39  38 N6        30.44F
EAGLE          SUNNY     63  28  27 CALM      30.47F
RIFLE          FAIR      65  37  35 NW5       30.42F
DELTA          NOT AVBL
NUCLA          FAIR      68  32  26 W3        30.47F
$$

COZ017>023-064>068-262000-
...SOUTHWEST COLORADO...

CITY           SKY/WX    TMP DP  RH WIND       PRES   REMARKS
DURANGO        FAIR      66  36  32 W7        30.44F
CORTEZ         FAIR      69  36  29 SW6       30.41F
PAGOSA SPRINGS FAIR      67  30  25 S10       30.46F
TELLURIDE      FAIR      63  31  30 W9        30.57F
WOLF CREEK PAS NOT AVBL
$$

COZ009-010-012-014-032>034-037-058>063-262000-
...CENTRAL COLORADO...

CITY           SKY/WX    TMP DP  RH WIND       PRES   REMARKS
ASPEN          FAIR      63  30  28 CALM      30.48F
BUENA VISTA    FAIR      64  28  25 SE5       30.48F
COPPER MTN     FAIR      54  19  26 NW5G12    30.72F
BERTHOUD PASS  FAIR      45  32  61 NE6G21    30.75S
COTTONWOOD PAS FAIR      64  19  17 SE5       30.60F
GUNNISON       FAIR      60  33  36 S6        30.51F
KREMMLING      FAIR      64  21  19 CALM      30.50F
LEADVILLE      FAIR      60  16  18 MISG      30.56F
MONARCH PASS   FAIR      46  27  46 W13       30.83S
SALIDA         FAIR      68  30  24 NE5       30.53F
SUNLIGHT       FAIR      52  34  50 W5        30.69F
WILKERSON PASS FAIR      54  10  17 W3        30.71F
$$

COZ069>075-262000-
...SAN LUIS VALLEY/SANGRE DE CRISTO MOUNTAINS...

CITY           SKY/WX    TMP DP  RH WIND       PRES   REMARKS
ALAMOSA        FAIR      65  31  28 N7        30.48F
LA VETA PASS   NOT AVBL
SAGUACHE       NOT AVBL
$$

COZ035-036-038>040-262000-
...NORTHERN COLORADO FRONT RANGE...

CITY           SKY/WX    TMP DP  RH WIND       PRES   REMARKS
DENVER INTL AP FAIR      72  29  20 CALM      30.38F
DMNS CITY PARK   N/A     74  29  19 SE6       30.37F
AURORA         SUNNY     73  30  21 VRB5      30.39F
FRONT RANGE AP SUNNY     73  30  20 CALM      30.39F
ERIE MUNI ARPT FAIR      73  27  17 E6        30.37F
BOULDER MUN AP FAIR      72  32  23 E7        30.37F
CENTENNIAL     FAIR      70  27  20 SE6       30.39F
BROOMFIELD     SUNNY     72  28  20 S6        30.40F
FORT COLLINS   FAIR      73  32  21 SE7       30.36F
LONGMONT       FAIR      75  32  20 N3        30.38F
$$

COZ041-046-047-076>085-087-088-262000-
...PIKES PEAK/PALMER DIVIDE AND SOUTHERN FOOTHILLS...

CITY           SKY/WX    TMP DP  RH WIND       PRES   REMARKS
COLO. SPRINGS  FAIR      71  25  17 CALM      30.41F
A. F. ACADEMY  FAIR      71  24  17 SE6       30.42F
SCHRIEVER AFB  NOT AVBL
ELLICOTT       NOT AVBL
FALCON         FAIR      71  26  18 NE5       30.46F
FORT CARSON    FAIR      72  27  18 VRB5      30.39F
LIMON          FAIR      73  30  20 VRB5      30.38F
MONUMENT HILL  FAIR      66  27  22 CALM      30.47F
TRINIDAD       FAIR      70  31  23 VRB5      30.40F
$$

COZ042>045-048>051-090-091-262000-
...NORTHEAST COLORADO...

CITY           SKY/WX    TMP DP  RH WIND       PRES   REMARKS
GREELEY ARPT   FAIR      72  34  25 S6        30.37F
AKRON          FAIR      72  33  24 VRB6      30.36F
BURLINGTON     FAIR      75  32  20 NW10G18   30.33F
WRAY           NOT AVBL
STERLING       FAIR      75  37  25 N9        30.31F
HOLYOKE        FAIR      79  37  22 N14       30.31F
FORT MORGAN    FAIR      76  31  19 CALM      30.35F
$$

COZ086-089-092>099-262000-
...SOUTHEAST COLORADO...

CITY           SKY/WX    TMP DP  RH WIND       PRES   REMARKS
PUEBLO         FAIR      76  29  17 E9        30.34F
LA JUNTA       FAIR      74  33  22 E6        30.34F
LAMAR          FAIR      75  34  22 VRB5      30.31F
SPRINGFIELD    NOT AVBL
$$




USA.gov is the U.S. government's official web portal to all federal, state and local government web resources and services.